Reflectivity
-20 -20 -11 -5 -5 -20 -20 -20 -20 -20 -20 -20 -20 -20 -20 -20 -20 -20 -20 -20 -20 -20 -20 -20 -20 -20 -20 -20 -20 -20 -20 -20 -20 -20 -20 -20 -20 -20 -20 -20 -20 -6 5
-10 -20 9 -20 -20 -20 -20 -20 -20 -20 -20 -20 -20 -20 -20 -20 -20 -20 -20 -20 -20 -20 -20 -20 -20 -20 -20 -20 -20 -20 -20 -20 -20 -20 -20 -20 -20 -20 -20 -20 -20 -20 -20
13 -19 -20 -20 -20 -20 -20 -20 -20 -20 -20 -20 -20 -20 -20 -20 -20 -20 -20 -20 -20 -20 -20 -20 -20 -20 -20 -20 -20 -20 -20 -20 -20 -20 -20 -20 -20 -20 -20 -20 -20 -20 -20
-4 5 -20 -20 -20 -20 -20 -20 -20 -20 -20 -20 -20 -20 -20 -20 -20 -20 -20 -20 -20 -20 -20 -20 -20 -20 -20 -20 -20 -20 -20 -20 -20 -20 -20 -20 -20 -20 -20 -20 -20 -20 -20
-20 -20 -20 -20 -20 -20 -20 -20 -20 -20 -20 -20 -20 -20 -20 -20 -20 -20 -20 -20 -20 -20 -20 -20 -20 -20 -20 -20 -20 -20 -20 -20 -20 -20 -20 -20 -20 -20 -20 -20 -20 -20 -20
-20 -20 -20 -20 -20 -20 -20 -20 -20 -20 -20 -20 -20 -20 -20 -20 -20 -20 -20 -20 -20 -20 -20 -20 -20 -20 -20 -20 -20 -20 -20 -20 -20 -20 -20 -20 -20 -20 -20 -20 -20 -20 -20
-20 -20 -20 -20 -20 -20 -20 -20 -20 -20 -20 -20 -20 -20 -20 -20 -20 -20 -20 -20 -20 -20 -20 -20 -20 -20 -20 -20 -20 -20 -20 -20 -20 -20 -20 -20 -20 -20 -20 -20 -20 -20 -20
-20 -20 -20 -20 -20 -20 -20 -20 -20 -20 -20 -20 -20 -20 -20 -20 -20 -20 -20 -20 -20 -20 -20 -20 -20 -20 -20 -20 -20 -20 -20 -20 -20 -20 -20 -20 -20 -20 -20 -20 -20 -20 -20
-20 -20 -20 -20 -20 -20 -20 -20 -20 -20 -20 -20 -20 -20 -20 -20 -20 -20 -20 -20 -20 -20 -20 -20 -20 -20 -20 -20 -20 -20 -20 -20 -20 -20 -20 -20 -20 -20 -20 -20 -20 -20 -20
-20 -20 -20 -20 -20 -20 -20 -20 -20 -20 -20 -20 -20 -20 -20 -20 -20 -20 -20 -20 -20 -20 -20 -20 -20 -20 -20 -20 -20 -20 -20 -20 -20 -20 -20 -20 -3 -20 -20 -20 -2 -16 -20
-20 -20 -20 -20 -20 -20 -20 -20 -20 -20 -20 -20 -20 -20 -20 -20 -20 -20 -20 -20 -20 -20 -20 -20 -20 -20 -20 -20 -20 -20 -20 -20 -20 -20 -20 -17 -0 -20 -19 -1 -13 -10 -3
-20 -20 -20 -20 -20 -20 -20 -20 -20 -20 -20 -20 -20 -20 -20 -20 -20 -20 -20 -20 -20 -20 -20 -20 -20 -20 -20 -20 -20 -20 -20 -20 -20 -20 -20 -20 -0 -20 -20 -20 -20 -15 3
-20 -20 -20 -20 -20 -20 -20 -20 -20 -20 -20 -20 -20 -20 -20 -20 -20 -20 -20 -20 -20 -20 -20 -20 -20 -20 -20 -20 -20 -20 -20 -20 -20 -20 -20 -20 -17 -7 -20 -20 -12 -20 -20
-20 -20 -20 -20 -20 -20 -20 -20 -20 -20 -20 -20 -20 -20 -20 -20 -20 -20 -20 -20 -20 -20 -20 -20 -20 -20 -20 -20 -20 -20 -20 -20 -20 -20 -20 -20 -20 1 -15 -20 -12 -13 -9
-20 -20 -20 -20 -20 -20 -20 -20 -20 -20 -20 -20 -20 -20 -20 -20 -20 -20 -20 -20 -20 -20 -20 -20 -20 -20 -20 -20 -20 -20 -20 -20 -20 -20 -20 1 -7 -20 -20 -20 -20 -20 -20
-20 -20 -20 -20 -20 -20 -20 -20 -20 -20 -20 -20 -20 -20 -20 -20 -20 -20 -20 -20 -20 -20 -20 -20 -20 -20 -20 -20 -20 -20 -20 -20 -20 -20 6 -20 -20 -20 -20 -20 -20 -20 -12
-20 -20 -20 -20 -20 -20 -20 -20 -20 -20 -20 -20 -20 -20 -20 -20 -20 -20 -20 -20 -20 -20 -20 -20 -20 -20 -20 -20 -20 -20 -20 -20 -5 18 -18 -20 -20 -20 -20 -20 -4 3 5
-20 -20 -20 -20 -20 -20 -20 -20 -20 -20 -20 -20 -20 -20 -20 -20 -20 -20 -20 -20 -20 -20 -20 -20 -20 -20 -20 -20 -20 -20 -20 -20 -20 -20 -20 -20 -4 -19 -17 3 19 18 18
-20 -20 -20 -20 -20 -20 -20 -20 -20 -20 -20 -20 -20 -20 -20 -20 -20 -20 -20 -20 -20 -20 -6 -17 -20 -20 -20 -20 -20 -20 -20 -20 -20 -20 -20 -20 -20 -19 5 6 5 7 4
-20 -20 -20 -20 -20 -20 -20 -20 -20 -20 -20 -20 -20 -20 -20 -20 -20 -20 -20 -20 -20 -20 -20 -20 -20 -14 -4 -20 -20 -20 -20 -20 -20 -20 -20 -2 -7 -20 -20 -20 -20 -20 -19
-20 -20 -20 -20 -20 -20 -20 -20 -20 -20 -20 -20 -20 -20 -20 -20 -20 -20 -20 -20 -20 -20 -10 14 13 -14 -20 -20 -20 -20 -20 -20 -20 -15 -20 -20 -20 -20 -20 -20 -20 -20 -5
-20 -20 -20 -20 -20 -20 -20 -20 -20 -20 -20 -20 -20 -20 -20 -20 -20 -20 -20 -20 5 20 -19 -20 -20 -20 -20 -20 -20 -19 4 -20 -20 -20 -20 -20 -20 -20 -20 -20 -20 -3 6
-20 -20 -20 -20 -20 -20 -20 -20 -20 -20 -20 -20 -20 -20 -20 -20 -20 -20 -20 -15 17 -20 -20 -20 -20 -20 -20 -14 4 -20 -20 -14 -20 -20 -18 -17 -20 -20 -20 -20 -20 -20 -1
-20 -20 -20 -20 -20 -20 -20 -20 -20 -20 -20 -20 -20 -20 -20 -20 -20 1 1 0 -20 -20 -20 -20 -20 -13 3 -19 -20 -17 -19 -2 -20 -20 -20 -2 -20 -20 -20 -20 -20 -20 -2
-20 -20 -20 -20 -20 -20 -20 -20 -20 -20 -20 -20 -20 -20 -20 -5 -3 10 10 -19 -20 -20 -20 -20 10 -8 -20 -20 -14 5 -11 -20 -20 -20 -20 -20 -20 -20 -20 -20 -20 -20 -16
-20 -20 -20 -20 -20 -20 -20 -20 -20 -20 -20 -20 -20 -20 -20 3 7 15 3 -20 -20 -20 -3 -18 -20 -20 -20 -20 -20 -20 -20 6 -18 -14 -20 2 -17 -18 7 -2 -20 -20 -20
Wind_Speed
3 2 3 4 4 4 4 4 4 4 5 6 5 6 6 6 6 3 3 12 15 14 13 15 14 14 13 12 15 14 13 13 11 9 8 7 7 8 8 9 13 14 15
3 4 5 4 4 4 4 5 3 4 4 4 5 5 5 5 4 5 4 5 16 16 16 16 17 16 15 16 15 13 13 12 12 11 8 7 7 8 8 9 9 9 10
5 5 5 4 4 4 5 5 4 3 5 5 5 4 4 4 5 5 5 4 6 14 17 18 18 17 17 17 15 16 14 14 13 11 9 8 9 9 8 8 9 9 10
6 6 5 4 3 4 4 4 4 4 5 5 5 4 3 2 3 5 5 4 5 5 10 18 19 18 18 17 16 17 15 15 14 12 11 10 9 9 9 10 11 12 13
7 6 5 4 5 4 5 4 4 3 4 6 7 5 3 1 2 3 6 6 6 5 4 11 16 16 16 16 16 17 16 15 16 14 12 11 13 13 12 13 13 13 14
7 6 5 5 5 4 5 4 5 4 2 4 6 7 4 1 1 4 5 3 4 5 4 5 4 5 16 15 16 19 18 18 17 13 13 14 13 13 14 15 16 17 16
7 6 5 5 5 5 5 5 3 6 4 6 4 5 3 2 4 2 2 1 4 4 4 4 5 4 4 13 15 19 19 19 18 13 15 16 16 15 16 18 19 19 20
7 6 6 5 5 4 6 6 6 3 3 5 3 1 5 6 4 8 2 2 6 5 8 10 10 10 6 4 9 18 20 19 15 16 18 18 16 18 20 21 22 22 23
7 7 6 6 5 5 5 4 4 6 3 3 6 3 4 3 4 4 4 4 7 4 6 6 9 8 7 6 10 11 17 17 16 18 19 20 21 22 23 25 26 26 26
7 6 6 6 6 4 6 4 4 3 3 3 3 3 0 2 3 6 3 7 2 9 6 5 7 7 8 6 12 17 19 16 19 21 24 24 25 27 28 29 28 28 27
6 6 6 6 6 5 5 6 5 5 2 1 1 2 2 2 0 2 8 5 8 7 7 4 6 8 8 7 5 9 14 20 22 24 25 27 30 29 29 29 29 29 28
4 6 6 6 5 5 5 4 3 4 2 2 0 1 1 1 3 2 5 10 12 6 9 9 6 5 5 5 10 20 18 22 25 26 30 30 30 30 30 30 30 31 30
3 4 4 5 4 4 4 3 3 3 1 1 1 2 1 2 2 2 4 8 10 9 4 3 5 5 7 6 8 18 21 26 29 29 30 31 31 31 30 30 32 32 33
4 4 5 5 5 4 3 3 2 2 1 2 3 3 3 3 2 2 3 7 12 5 9 4 5 5 4 8 12 24 13 25 29 31 31 31 32 30 31 32 33 34 35
4 6 6 5 4 4 3 3 2 4 3 2 4 4 3 3 4 4 3 4 5 10 13 2 3 9 5 6 10 12 12 21 27 30 32 30 29 31 35 35 37 38 38
5 6 5 5 3 3 3 3 3 3 3 3 3 4 4 4 5 4 4 5 5 9 13 9 10 10 8 9 14 15 14 25 27 29 28 28 33 35 37 38 38 36 36
6 6 5 4 3 4 3 3 4 4 5 5 5 5 6 6 4 4 4 5 6 7 12 15 11 12 14 14 12 10 11 11 11 22 31 33 33 34 35 36 35 35 33
5 5 5 4 4 4 4 4 4 5 5 6 7 6 7 7 6 6 5 8 9 9 9 18 14 13 15 14 14 12 10 9 11 20 29 31 33 33 34 32 32 32 32
6 6 5 4 4 4 5 4 4 5 6 6 6 6 8 7 7 6 8 8 8 8 8 11 15 13 13 10 12 11 11 12 10 21 26 29 30 32 31 32 35 34 33
6 5 4 3 4 5 5 5 5 5 5 5 6 6 7 7 8 9 8 8 8 9 11 11 12 13 9 7 10 12 12 10 12 11 19 24 28 29 31 31 32 33 33
5 4 4 3 4 5 4 6 4 3 3 6 6 7 7 11 18 15 10 11 12 11 11 10 9 8 12 12 12 11 13 13 12 11 12 11 11 11 13 23 26 30 30
5 4 4 5 6 4 12 13 11 3 4 5 7 7 7 13 12 21 24 26 22 12 11 11 12 14 13 13 13 12 12 14 16 8 9 14 11 12 12 11 25 30 31
3 3 5 5 5 5 12 15 16 3 5 6 8 8 8 8 14 11 19 24 10 21 20 16 15 13 15 14 13 15 14 13 15 13 13 15 11 14 12 13 27 31 32
4 3 4 5 5 5 14 16 17 5 5 7 9 8 9 10 10 17 15 10 9 8 11 11 12 14 14 15 15 14 15 16 13 12 11 15 12 14 13 12 29 32 32
3 3 3 6 6 6 15 18 16 5 6 8 8 8 9 10 18 26 15 12 12 11 15 23 20 26 28 26 22 12 10 12 14 13 11 12 11 14 14 15 13 25 27
3 4 5 5 8 6 14 18 15 5 6 7 6 6 13 16 26 25 17 13 11 14 13 10 12 14 17 16 23 12 10 12 13 14 8 10 13 11 10 10 6 11 11
Wind_Direction
128 119 80 58 64 52 65 50 39 38 29 16 13 17 10 356 358 0 360 17 32 27 35 28 26 20 12 21 24 21 24 22 14 12 14 12 13 3 334 299 278 281 278
120 101 73 65 54 51 45 61 44 38 30 12 360 5 4 1 11 18 17 14 34 34 33 29 23 13 17 9 5 10 7 5 356 353 357 356 351 339 332 340 336 320 301
100 91 88 73 62 51 59 51 33 37 30 4 350 345 359 360 30 29 21 32 24 31 32 29 23 15 11 2 4 358 357 350 345 345 355 352 336 325 333 345 342 337 326
96 94 95 75 59 57 52 47 22 19 19 7 325 325 349 1 38 34 36 38 23 28 27 27 21 14 7 2 358 351 352 349 348 344 339 334 327 325 320 322 319 317 314
95 97 88 80 67 52 44 31 26 33 21 353 327 316 337 305 72 37 44 40 28 26 20 17 14 6 359 351 351 346 343 338 327 316 308 314 308 305 303 302 300 299 302
99 97 86 73 65 59 40 26 31 12 27 335 320 315 322 332 62 44 39 24 14 18 11 6 356 341 347 342 345 338 334 328 319 309 308 306 301 303 303 300 297 294 291
98 96 89 81 66 68 63 35 21 27 2 342 341 332 333 345 286 318 3 1 4 345 7 353 347 325 317 330 334 329 326 321 307 315 309 304 302 301 302 300 297 294 292
101 95 95 82 78 85 58 44 40 10 4 20 357 293 357 333 349 315 356 324 13 2 3 344 336 323 311 300 311 325 321 314 303 305 303 301 301 302 300 300 298 296 293
90 91 91 93 82 77 71 63 45 46 13 346 29 64 351 312 326 322 335 11 348 352 325 319 310 304 299 296 312 310 308 300 299 300 302 302 300 299 298 298 295 291 288
88 91 92 85 80 77 70 61 56 57 75 29 335 30 262 227 308 320 316 316 343 325 301 295 298 290 292 284 293 303 303 293 299 301 303 299 299 299 297 292 287 287 288
86 87 85 84 80 75 74 65 51 50 63 108 51 334 332 298 269 298 299 305 308 303 293 281 283 288 285 288 287 290 290 299 299 301 298 301 297 293 292 291 291 289 288
86 77 82 84 82 76 68 62 56 49 50 49 355 234 214 272 295 285 286 305 297 293 307 288 278 272 277 281 299 310 299 302 302 300 300 295 294 294 293 293 291 287 288
83 91 87 76 71 73 69 58 45 23 21 342 324 304 241 243 234 249 279 303 302 306 280 285 269 288 299 312 304 307 305 305 304 300 300 298 297 295 295 295 293 293 289
121 116 92 82 77 68 59 47 31 330 339 334 308 278 263 255 242 237 264 308 313 280 300 263 266 267 317 297 286 303 301 299 300 299 297 297 294 298 299 296 292 292 291
120 98 89 86 65 53 39 15 355 333 328 299 285 272 245 257 243 247 247 250 275 307 306 302 296 311 284 281 279 291 291 287 291 292 293 296 300 298 294 292 293 289 285
94 93 86 75 56 34 17 4 340 313 329 307 289 280 267 244 249 250 243 248 246 266 286 312 299 292 285 283 286 287 282 284 292 290 289 295 293 294 292 290 287 283 281
100 93 85 73 40 20 360 351 335 307 326 313 300 288 283 267 251 250 244 248 253 254 272 292 292 299 297 294 287 280 274 275 283 290 287 288 290 290 288 286 287 284 285
95 94 79 61 29 359 350 352 327 320 321 314 302 304 292 294 267 259 261 259 255 257 268 286 294 300 294 296 294 289 282 282 262 275 282 287 293 295 291 290 290 289 285
89 71 65 41 11 350 341 320 314 318 315 305 304 301 293 288 283 272 263 266 266 268 269 279 290 292 293 294 296 293 285 279 275 282 289 289 290 292 291 289 290 289 288
84 66 51 33 3 337 324 319 314 307 316 327 312 299 295 290 284 277 268 278 294 296 285 280 281 286 291 306 291 301 299 291 290 288 285 284 288 288 290 292 291 291 291
79 64 41 12 357 338 330 307 287 300 319 303 295 296 290 295 310 315 312 312 301 294 293 288 310 313 301 312 305 301 294 297 291 290 287 286 281 278 276 282 281 284 284
64 48 18 3 352 333 317 322 325 282 293 300 297 284 274 295 299 313 312 308 306 315 324 310 304 304 304 301 298 295 296 304 301 283 289 290 282 280 279 275 278 279 281
45 26 11 353 322 310 322 327 321 292 296 291 287 288 299 302 314 296 295 301 304 312 310 307 303 297 295 298 298 302 298 293 293 299 296 290 292 284 281 277 283 285 285
29 11 336 328 328 321 329 324 321 317 292 277 279 284 289 296 294 300 310 316 311 290 300 301 296 294 294 303 299 301 299 293 288 291 288 287 293 283 287 282 283 284 285
9 332 318 334 335 307 325 329 326 298 281 277 282 281 287 287 303 315 323 314 314 308 305 306 306 311 307 309 308 304 302 302 298 300 301 286 292 292 290 283 275 277 280
341 340 334 329 313 315 324 325 324 301 287 291 281 265 296 317 317 323 321 324 321 309 305 318 313 308 307 298 306 306 303 296 297 301 298 300 299 305 299 279 280 281 272